Slidell, LA

7:21 PM CDT on April 28, 2017 (GMT -0500)
Slidell

Weather History for KASD - December, 2013

Change the Weather History Date:

Tuesday, December 3, 2013

  Actual Average (KNEW) Record (KNEW)
Temperature  
Mean Temperature 66 °F -  
Max Temperature 73 °F 65 °F 84 °F (1978)
Min Temperature 60 °F 52 °F 25 °F (1974)
Cooling Degree Days 2    
Growing Degree Days 16 (Base 50)    
Moisture  
Dew Point 64 °F    
Average Humidity 91    
Maximum Humidity 100    
Minimum Humidity 78    
Precipitation  
Precipitation 0.40 in - - ()
Sea Level Pressure  
Sea Level Pressure 29.80 in    
Wind  
Wind Speed 4 mph (South)    
Max Wind Speed 10 mph    
Max Gust Speed -    
Visibility 7 miles    
Events Rain    
Averages and records for this station are not official NWS values.
T = Trace of Precipitation, MM = Missing Value Source: NWS Daily Summary

Daily Weather History Graph

Daily Weather History Graph

Search for Another Location

Airport or City:

Trip Planner

Search our weather history database for the weather conditions in past years. The results will help you decide how hot, cold, wet, or windy it might be!

Date:

Astronomy

Dec. 03, 2013 Rise Set
Actual Time 6:40 AM CST 4:58 PM CST
Civil Twilight 6:13 AM CST 5:24 PM CST
Nautical Twilight 5:44 AM CST 5:54 PM CST
Astronomical Twilight 5:15 AM CST 6:23 PM CST
Moon 7:10 AM CST (12/3) 6:00 PM CST (12/3)
Length of Visible Light 11h 10m
Length of Day
10h 18m
New Moon, 1% of the Moon is Illuminated
Dec 3
New Moon
Dec 9
First Quarter
Dec 17
Full
Dec 25
Last Quarter
Jan 1
New

Hourly Weather History & Observations

Time (CST) Temp. Dew Point Humidity Pressure Visibility Wind Dir Wind Speed Gust Speed Precip Events Conditions
12:13 AM 64.4 °F 62.6 °F 94% 29.79 in 10.0 mi SSW 4.6 mph - N/A   Scattered Clouds
12:33 AM 64.4 °F 62.6 °F 94% 29.79 in 10.0 mi SSW 4.6 mph - N/A   Mostly Cloudy
12:51 AM 62.6 °F 60.8 °F 94% 29.79 in 10.0 mi South 5.8 mph - N/A   Scattered Clouds
12:53 AM 63.0 °F 61.0 °F 93% 29.79 in 9.0 mi South 4.6 mph - N/A   Scattered Clouds
1:21 AM 62.6 °F 60.8 °F 94% 29.79 in 1.8 mi Calm Calm - N/A   Partly Cloudy
1:37 AM 60.8 °F 59.0 °F 94% 29.79 in 3.0 mi Calm Calm - N/A   Mostly Cloudy
1:49 AM 60.8 °F 60.8 °F 100% 29.79 in 1.5 mi Calm Calm - N/A   Mostly Cloudy
1:53 AM 61.0 °F 60.1 °F 97% 29.79 in 1.0 mi South 3.5 mph - N/A   Mostly Cloudy
2:18 AM 62.6 °F 60.8 °F 94% 29.79 in 3.0 mi South 3.5 mph - N/A   Mostly Cloudy
2:53 AM 62.1 °F 61.0 °F 96% 29.79 in 6.0 mi South 4.6 mph - N/A   Mostly Cloudy
3:16 AM 62.6 °F 60.8 °F 94% 29.78 in 7.0 mi South 4.6 mph - N/A   Mostly Cloudy
3:53 AM 63.0 °F 61.0 °F 93% 29.77 in 6.0 mi South 4.6 mph - N/A   Mostly Cloudy
4:04 AM 62.6 °F 60.8 °F 94% 29.77 in 6.0 mi South 5.8 mph - N/A   Scattered Clouds
4:53 AM 63.0 °F 61.0 °F 93% 29.76 in 8.0 mi South 4.6 mph - N/A   Partly Cloudy
5:53 AM 63.0 °F 61.0 °F 93% 29.78 in 10.0 mi SSW 4.6 mph - N/A   Partly Cloudy
6:49 AM 64.4 °F 62.6 °F 94% 29.78 in 10.0 mi Variable 4.6 mph - 0.02 in   Mostly Cloudy
6:53 AM 64.0 °F 62.1 °F 93% 29.78 in 10.0 mi South 3.5 mph - 0.02 in   Mostly Cloudy
7:38 AM 66.2 °F 62.6 °F 88% 29.79 in 10.0 mi South 4.6 mph - N/A   Overcast
7:53 AM 66.0 °F 64.0 °F 93% 29.80 in 10.0 mi South 6.9 mph - N/A   Overcast
8:22 AM 66.2 °F 64.4 °F 94% 29.81 in 1.8 mi South 10.4 mph - 0.05 in Rain Heavy Rain
8:37 AM 64.4 °F 64.4 °F 100% 29.82 in 2.5 mi South 5.8 mph - 0.08 in Rain Light Rain
8:48 AM 66.2 °F 64.4 °F 94% 29.83 in 3.0 mi SSW 3.5 mph - 0.09 in Rain Light Rain
8:53 AM 66.0 °F 64.0 °F 93% 29.83 in 5.0 mi South 4.6 mph - 0.09 in Rain Light Rain
9:05 AM 66.2 °F 64.4 °F 94% 29.83 in 3.0 mi Calm Calm - 0.02 in Rain Light Rain
9:18 AM 66.2 °F 64.4 °F 94% 29.83 in 2.5 mi South 4.6 mph - 0.04 in Rain Rain
9:36 AM 66.2 °F 64.4 °F 94% 29.83 in 1.5 mi South 5.8 mph - 0.10 in Rain Rain
9:42 AM 66.2 °F 64.4 °F 94% 29.83 in 3.0 mi South 5.8 mph - 0.10 in Rain Light Rain
9:53 AM 66.9 °F 64.9 °F 93% 29.83 in 10.0 mi South 4.6 mph - 0.10 in   Overcast
10:05 AM 68.0 °F 64.4 °F 88% 29.83 in 7.0 mi South 3.5 mph - 0.00 in Rain Light Rain
10:26 AM 66.2 °F 64.4 °F 94% 29.82 in 5.0 mi Calm Calm - 0.00 in Rain Light Rain
10:53 AM 66.9 °F 64.9 °F 93% 29.81 in 6.0 mi Calm Calm - 0.01 in Rain Light Rain
11:00 AM 66.2 °F 64.4 °F 94% 29.81 in 5.0 mi Calm Calm - 0.01 in Rain Light Rain
11:16 AM 68.0 °F 64.4 °F 88% 29.81 in 1.8 mi Calm Calm - 0.05 in Rain Heavy Rain
11:28 AM 68.0 °F 66.2 °F 94% 29.80 in 3.0 mi Calm Calm - 0.08 in Rain Light Rain
11:46 AM 69.8 °F 66.2 °F 88% 29.80 in 9.0 mi Variable 3.5 mph - 0.08 in Rain Light Rain
11:53 AM 68.0 °F 66.0 °F 93% 29.80 in 1.0 mi West 4.6 mph - 0.16 in Rain Heavy Rain
12:05 PM 69.8 °F 66.2 °F 88% 29.79 in 10.0 mi SSW 4.6 mph - 0.00 in   Overcast
12:53 PM 72.0 °F 66.9 °F 84% 29.76 in 10.0 mi SSW 8.1 mph - 0.01 in   Mostly Cloudy
1:25 PM 71.6 °F 66.2 °F 83% 29.75 in 6.0 mi SSW 4.6 mph - 0.00 in Rain Light Rain
1:53 PM 72.0 °F 68.0 °F 87% 29.75 in 10.0 mi Calm Calm - 0.01 in Rain Light Rain
2:46 PM 73.4 °F 66.2 °F 78% 29.74 in 10.0 mi SSW 4.6 mph - 0.00 in   Mostly Cloudy
2:53 PM 73.0 °F 66.9 °F 81% 29.75 in 10.0 mi SSW 4.6 mph - 0.00 in   Mostly Cloudy
3:53 PM 73.0 °F 66.0 °F 79% 29.74 in 10.0 mi SSW 6.9 mph - N/A   Mostly Cloudy
4:53 PM 71.1 °F 64.9 °F 81% 29.75 in 10.0 mi SSW 8.1 mph - N/A   Partly Cloudy
5:53 PM 70.0 °F 66.0 °F 87% 29.77 in 10.0 mi SSW 6.9 mph - N/A   Partly Cloudy
6:53 PM 70.0 °F 66.0 °F 87% 29.79 in 10.0 mi SSW 9.2 mph - N/A   Partly Cloudy
7:19 PM 69.8 °F 66.2 °F 88% 29.79 in 10.0 mi SSW 6.9 mph - N/A   Mostly Cloudy
7:53 PM 69.1 °F 66.0 °F 90% 29.80 in 10.0 mi South 8.1 mph - N/A   Overcast
8:25 PM 69.8 °F 66.2 °F 88% 29.81 in 10.0 mi SSW 8.1 mph - N/A   Overcast
8:53 PM 69.1 °F 66.0 °F 90% 29.81 in 10.0 mi South 6.9 mph - N/A   Overcast
9:12 PM 68.0 °F 66.2 °F 94% 29.82 in 9.0 mi South 8.1 mph - N/A   Overcast
9:53 PM 66.9 °F 64.9 °F 93% 29.83 in 7.0 mi South 6.9 mph - N/A   Overcast
10:53 PM 68.0 °F 66.0 °F 93% 29.84 in 8.0 mi South 5.8 mph - N/A   Overcast
11:53 PM 68.0 °F 66.0 °F 93% 29.83 in 7.0 mi South 5.8 mph - N/A   Overcast